Location: Deurze
(52.9838°N, 6.6090°E)
Time: 19:17:11
(UTC+00:00)

Cosmos 468 Rocket - Pass Details

Date: 11 March 2026
Orbit: 739 x 775 km, 74.0° (Epoch: 20 April)

Event Time Altitude Azimuth Distance (km) Brightness Sun altitude
Rises 19:17:45 0° 335° (NNW) 3,251 7.9 -16.8°
Reaches altitude 10° 19:20:11 10° 339° (NNW) 2,325 7.0 -17.1°
Maximum altitude 19:25:24 58° 59° (ENE) 904 4.1 -17.9°
Enters shadow 19:27:41 32° 124° (SE) 1,305 4.6 -18.2°
